This demonstration page uses our WeatherBlox Daily Observations layout. Learn more.

Left ArrowRight Arrow

Hourly Observations for May 20, 2020

Temp ( °F °C ) Dew Point ( °F °C ) Humidity (%) Winds ( mph kmh ) Pressure ( in mb ) Visibility ( mi km ) Precip ( " mm )
12:56 am 00:56 Clear 55 12.8 51 10.6 87 87 ESE 8 13 29.99 1016 10 16 0.00 0.00
1:56 am 01:56 Clear 53 11.7 50 10 89 89 SE 9 15 29.98 1015 10 16 0.00 0.00
2:56 am 02:56 Clear 52 11.1 50 10 93 93 ESE 8 13 29.98 1015 10 16 0.00 0.00
3:56 am 03:56 Clear 51 10.6 49 9.4 92 92 ESE 10 17 29.97 1015 9 14 0.00 0.00
4:56 am 04:56 Clear 51 10.6 49 9.4 92 92 ESE 15 24 29.95 1014 8 13 0.00 0.00
5:46 am 05:46 Mostly Clear 52 11 50 10 94 94 ESE 14 22 29.97 1015 8 13 0.00 0.00
5:56 am 05:56 Mostly Cloudy 51 10.6 50 10 96 96 ESE 15 24 29.94 1014 7 11 0.00 0.00
6:10 am 06:10 Cloudy with Mist and Fog 52 11 50 10 94 94 SE 8 13 29.98 1015 5 8 0.00 0.00
6:56 am 06:56 Cloudy with Mist and Fog 51 10.6 51 10.6 100 100 SE 14 22 29.97 1015 3 5 0.00 0.00
7:12 am 07:12 Cloudy with Mist and Fog 52 11 52 11 100 100 SE 13 20 30.00 1016 2 3 0.00 0.00
7:52 am 07:52 Cloudy with Mist and Fog 52 11 52 11 100 100 SE 10 17 30.00 1016 3 4 0.00 0.00
7:56 am 07:56 Cloudy with Mist and Fog 52 11.1 52 11.1 100 100 SE 12 19 29.98 1015 3 4 0.00 0.00
8:23 am 08:23 Cloudy with Mist and Fog 52 11 52 11 100 100 SE 12 19 30.00 1016 2 2 0.00 0.00
8:44 am 08:44 Cloudy with Mist and Fog 52 11 52 11 100 100 SE 14 22 30.01 1016 3 5 0.00 0.00
8:56 am 08:56 Cloudy with Mist and Fog 53 11.7 52 11.1 96 96 SE 13 20 29.99 1016 4 6 0.00 0.00
9:51 am 09:51 Cloudy 57 14 54 12 88 88 SE 12 19 29.98 1015 10 16 0.00 0.00
9:56 am 09:56 Cloudy 59 15 54 12.2 83 83 SE 13 20 29.99 1016 10 16 0.00 0.00
10:08 am 10:08 Cloudy 59 15 54 12 82 82 SE 10 17 29.98 1015 10 16 0.00 0.00
10:32 am 10:32 Mostly Sunny 63 17 54 12 73 73 SE 12 19 29.94 1014 10 16 0.00 0.00
10:56 am 10:56 Sunny 64 17.8 55 12.8 73 73 ESE 13 20 29.96 1015 10 16 0.00 0.00
11:56 am 11:56 Mostly Sunny 68 20 54 12.2 61 61 SSE 18 30 29.96 1015 10 16 0.00 0.00
12:56 pm 12:56 Sunny 72 22.2 54 12.2 53 53 SSE 18 30 29.94 1014 10 16 0.00 0.00
1:56 pm 13:56 Sunny 75 23.9 54 12.2 48 48 SSE 18 30 29.92 1013 10 16 0.00 0.00
2:56 pm 14:56 Sunny 76 24.4 53 11.7 45 45 S 17 28 29.89 1012 10 16 0.00 0.00
3:56 pm 15:56 Sunny 77 25 53 11.7 43 43 SE 22 35 29.86 1011 10 16 0.00 0.00
4:56 pm 16:56 Sunny 77 25 54 12.2 45 45 SSE 20 31 29.84 1011 10 16 0.00 0.00
5:56 pm 17:56 Sunny 76 24.4 53 11.7 45 45 SE 22 35 29.83 1010 10 16 0.00 0.00
6:56 pm 18:56 Sunny 75 23.9 54 12.2 48 48 SSE 21 33 29.83 1010 10 16 0.00 0.00
7:56 pm 19:56 Sunny 72 22.2 54 12.2 53 53 SE 22 35 29.82 1010 10 16 0.00 0.00
8:56 pm 20:56 Clear 68 20 55 12.8 63 63 SE 21 33 29.82 1010 10 16 0.00 0.00
9:56 pm 21:56 Clear 65 18.3 54 12.2 68 68 SSE 16 26 29.85 1011 10 16 0.00 0.00
10:56 pm 22:56 Partly Cloudy 62 16.7 55 12.8 78 78 SE 18 30 29.87 1011 10 16 0.00 0.00
11:07 pm 23:07 Mostly Cloudy 63 17 55 13 77 77 SE 21 33 29.85 1011 10 16 0.00 0.00
11:40 pm 23:40 Partly Cloudy 61 16 55 13 83 83 SE 20 31 29.85 1011 10 16 0.00 0.00
11:49 pm 23:49 Mostly Cloudy 61 16 55 13 83 83 SE 18 30 29.84 1010 10 16 0.00 0.00
11:56 pm 23:56 Partly Cloudy 61 16.1 55 12.8 81 81 SE 20 31 29.85 1011 10 16 0.00 0.00

Powered by AerisWeather